Location: ??????
(56.0120°N, 39.1740°E)
Time: 11:49:45
(UTC+00:00)

Cosmos 2360 Rocket - Pass Details

Date: 14 April 2026
Orbit: 831 x 845 km, 71.0° (Epoch: 10 May)

Event Time Altitude Azimuth Distance (km) Brightness Sun altitude
Rises 17:52:28 0° 239° (WSW) 3,382 5.6 -11.3°
Reaches altitude 10° 17:55:01 10° 245° (WSW) 2,453 5.0 -11.5°
Maximum altitude 18:00:23 44° 318° (NW) 1,156 3.5 -12.1°
Drops below altitude 10° 18:05:48 10° 30° (NNE) 2,473 4.8 -12.7°
Sets 18:08:23 0° 37° (NE) 3,413 5.4 -13.0°
